Hourly Data Report for October 03, 2016

All times are specified in Local Standard Time (LST). Add 1 hour to adjust for Daylight Saving Time where and when it is observed.

WINNIPEG A CS
MANITOBA

49°55'00.000" N
97°14'58.000" W
238.70 m
502S001
71849
XWG

Download Data

Hourly Data (October 2016)
Hourly Data Report for October 3, 2016
Temp Definition
°C
Dew Point Temp Definition
°C
Rel Hum Definition
%
Wind Dir Definition
10's deg

Wind Spd Definition
km/h
Visibility Definition
km
Stn Press Definition
kPa
Hmdx Definition


Wind Chill Definition


Weather Definition


TIME
00:00 18.9 10.7 59 17 29   98.38     LegendNANA
01:00 18.6 10.9 61 18 30   98.37     LegendNANA
02:00 17.9 11.1 65 17 25   98.35     LegendNANA
03:00 17.5 11.3 67 18 23   98.33     LegendNANA
04:00 16.6 11.6 72 17 26   98.32     LegendNANA
05:00 16.2 11.9 75 17 19   98.32     LegendNANA
06:00 15.8 12.3 80 17 23   98.25     LegendNANA
07:00 15.9 12.2 78 16 18   98.20     LegendNANA
08:00 15.8 11.8 77 14 18   98.19     LegendNANA
09:00 17.2 12.1 72 14 23   98.10     LegendNANA
10:00 18.3 12.4 68 15 24   98.10     LegendNANA
11:00 19.7 12.9 65 15 24   98.01     LegendNANA
12:00 23.2 13.4 54 18 33   97.99 26   LegendNANA
13:00 23.9 13.5 52 17 35   97.90 27   LegendNANA
14:00 25.7 13.6 47 16 39   97.82 29   LegendNANA
15:00 25.4 13.0 46 16 33   97.75 28   LegendNANA
16:00 25.1 12.4 45 17 33   97.69 28   LegendNANA
17:00 23.3 11.7 48 17 28   97.71 25   LegendNANA
18:00 22.1 11.3 50 16 20   97.69     LegendNANA
19:00 20.7 11.0 54 14 22   97.66     LegendNANA
20:00 20.2 10.9 55 14 21   97.65     LegendNANA
21:00 19.4 10.9 58 14 26   97.65     LegendNANA
22:00 18.3 10.6 61 14 25   97.68     LegendNANA
23:00 18.1 10.1 60 14 28   97.68     LegendNANA

Notes on Data Quality.

Legend

  • E = Estimated
  • M = Missing
  • NA = Not Available
  • ‡ = Partner data that is not subject to review by the National Climate Archives
Date modified: